KLM44M EGPH-EHAM

Flight info

Callsign KLM44M
Flight time 1h 22m
Altitude 25000
Route TLA Y96 OTBUN/N0456F370 DCT ERKIT N110 DOLAS L603 LAMSO
Aircraft B738/M-SDE2E3FGHIRWXY/LB1

Departure

Time 2026-05-05 17:13
Airport Edinburgh Airport (EGPH)

Arrival

Time 2026-05-05 18:36
Airport Amsterdam Airport Schiphol (EHAM)
Time Latitude Longitude Altitude Speed Heading
2026-05-05 16:39 55.94966 -3.36245 143 ft 0 kts 150°
2026-05-05 16:59 55.94967 -3.36246 143 ft 1 kts 150°
2026-05-05 16:59 55.94978 -3.36257 143 ft 2 kts 154°
2026-05-05 16:59 55.94995 -3.36267 143 ft 3 kts 172°
2026-05-05 17:00 55.95016 -3.36267 143 ft 3 kts 190°
2026-05-05 17:00 55.95026 -3.36262 143 ft 0 kts 198°
2026-05-05 17:04 55.95023 -3.36264 143 ft 1 kts 206°
2026-05-05 17:04 55.95015 -3.36282 143 ft 4 kts 239°
2026-05-05 17:04 55.95008 -3.36328 143 ft 7 kts 268°
2026-05-05 17:04 55.95024 -3.36393 143 ft 9 kts 320°
2026-05-05 17:05 55.95064 -3.36426 143 ft 6 kts 340°
2026-05-05 17:05 55.95083 -3.36443 143 ft 2 kts 327°
2026-05-05 17:05 55.95089 -3.36455 143 ft 2 kts 297°
2026-05-05 17:05 55.95073 -3.36529 143 ft 8 kts 236°
2026-05-05 17:06 55.95050 -3.36572 143 ft 3 kts 218°
2026-05-05 17:06 55.95046 -3.36577 143 ft 2 kts 218°
2026-05-05 17:06 55.95014 -3.36621 143 ft 10 kts 218°
2026-05-05 17:06 55.94956 -3.36774 143 ft 12 kts 239°
2026-05-05 17:07 55.94943 -3.36814 143 ft 0 kts 244°
2026-05-05 17:07 55.94943 -3.36815 143 ft 0 kts 244°
2026-05-05 17:07 55.94936 -3.36841 143 ft 7 kts 244°
2026-05-05 17:07 55.94906 -3.36951 143 ft 14 kts 244°
2026-05-05 17:08 55.94842 -3.37139 143 ft 20 kts 237°
2026-05-05 17:08 55.94758 -3.37371 143 ft 25 kts 239°
2026-05-05 17:08 55.94661 -3.37654 143 ft 29 kts 238°
2026-05-05 17:08 55.94633 -3.37738 143 ft 5 kts 238°
2026-05-05 17:09 55.94603 -3.37825 143 ft 10 kts 238°
2026-05-05 17:09 55.94568 -3.37947 143 ft 15 kts 253°
2026-05-05 17:09 55.94510 -3.38137 143 ft 20 kts 239°
2026-05-05 17:09 55.94424 -3.38380 143 ft 25 kts 241°
2026-05-05 17:10 55.94327 -3.38671 143 ft 31 kts 243°
2026-05-05 17:10 55.94361 -3.38947 143 ft 29 kts 331°
2026-05-05 17:10 55.94428 -3.38941 143 ft 0 kts 59°
2026-05-05 17:12 55.94431 -3.38931 143 ft 6 kts 64°
2026-05-05 17:12 55.94491 -3.38739 143 ft 33 kts 60°
2026-05-05 17:12 55.94730 -3.38038 143 ft 100 kts 58°
2026-05-05 17:12 55.95199 -3.36653 147 ft 159 kts 59°
2026-05-05 17:13 55.95816 -3.34823 510 ft 187 kts 59°
2026-05-05 17:13 55.96533 -3.32720 1052 ft 206 kts 55°
2026-05-05 17:13 55.97537 -3.31003 2069 ft 203 kts 36°
2026-05-05 17:13 55.98771 -3.29543 2703 ft 222 kts 35°
2026-05-05 17:14 56.00046 -3.27760 3255 ft 244 kts 40°
2026-05-05 17:14 56.01348 -3.25717 3878 ft 261 kts 41°
2026-05-05 17:14 56.02711 -3.23510 4842 ft 265 kts 40°
2026-05-05 17:14 56.04079 -3.21220 5443 ft 273 kts 45°
2026-05-05 17:15 56.05057 -3.18227 5795 ft 285 kts 69°
2026-05-05 17:15 56.05330 -3.14706 5874 ft 290 kts 92°
2026-05-05 17:15 56.04827 -3.11232 5882 ft 289 kts 116°
2026-05-05 17:15 56.03666 -3.08335 5894 ft 286 kts 135°
2026-05-05 17:16 56.02172 -3.05981 5898 ft 285 kts 143°
2026-05-05 17:16 56.00722 -3.03867 5891 ft 286 kts 142°
2026-05-05 17:16 55.99162 -3.01578 5887 ft 285 kts 142°
2026-05-05 17:16 55.97534 -2.99513 5861 ft 283 kts 155°
2026-05-05 17:17 55.95654 -2.98612 5869 ft 278 kts 179°
2026-05-05 17:17 55.93803 -2.99063 5882 ft 272 kts 202°
2026-05-05 17:17 55.92099 -3.00500 5901 ft 269 kts 212°
2026-05-05 17:17 55.90478 -3.02177 5893 ft 269 kts 213°
2026-05-05 17:18 55.88840 -3.03798 5888 ft 269 kts 211°
2026-05-05 17:18 55.87166 -3.05328 5930 ft 275 kts 209°
2026-05-05 17:18 55.85465 -3.06872 5884 ft 273 kts 212°
2026-05-05 17:18 55.83775 -3.08393 5883 ft 270 kts 208°
2026-05-05 17:19 55.82090 -3.09782 5884 ft 270 kts 208°
2026-05-05 17:19 55.80379 -3.11166 5885 ft 270 kts 207°
2026-05-05 17:19 55.78641 -3.12562 5885 ft 270 kts 207°
2026-05-05 17:19 55.76952 -3.13912 5885 ft 270 kts 207°
2026-05-05 17:20 55.75237 -3.15278 5885 ft 270 kts 207°
2026-05-05 17:20 55.73513 -3.16649 5885 ft 270 kts 207°
2026-05-05 17:20 55.71791 -3.18016 5885 ft 271 kts 207°
2026-05-05 17:20 55.70071 -3.19382 5885 ft 271 kts 207°
2026-05-05 17:21 55.68356 -3.20750 5885 ft 271 kts 207°
2026-05-05 17:21 55.66629 -3.22123 5885 ft 271 kts 207°
2026-05-05 17:21 55.64910 -3.23485 5885 ft 271 kts 207°
2026-05-05 17:22 55.61480 -3.26193 5885 ft 271 kts 207°
2026-05-05 17:22 55.59765 -3.27544 5885 ft 271 kts 207°
2026-05-05 17:22 55.58034 -3.28905 5885 ft 270 kts 207°
2026-05-05 17:22 55.56319 -3.30253 5885 ft 270 kts 207°
2026-05-05 17:23 55.54600 -3.31602 5885 ft 270 kts 207°
2026-05-05 17:23 55.52841 -3.32770 5861 ft 274 kts 194°
2026-05-05 17:23 55.50941 -3.32713 5896 ft 281 kts 169°
2026-05-05 17:23 55.49204 -3.31178 6568 ft 289 kts 143°
2026-05-05 17:24 55.47933 -3.28438 7622 ft 293 kts 121°
2026-05-05 17:24 55.47241 -3.25022 8498 ft 300 kts 104°
2026-05-05 17:24 55.47017 -3.21336 9371 ft 305 kts 94°
2026-05-05 17:24 55.46861 -3.17576 10187 ft 312 kts 94°
2026-05-05 17:25 55.46703 -3.13688 10588 ft 333 kts 94°
2026-05-05 17:25 55.46585 -3.10861 10809 ft 349 kts 94°
2026-05-05 17:25 55.46332 -3.04951 11206 ft 378 kts 95°
2026-05-05 17:25 55.45861 -3.00299 11721 ft 390 kts 105°
2026-05-05 17:26 55.44946 -2.95799 12541 ft 392 kts 115°
2026-05-05 17:26 55.43685 -2.91520 13313 ft 395 kts 121°
2026-05-05 17:26 55.42299 -2.87329 14055 ft 399 kts 122°
2026-05-05 17:26 55.40903 -2.83107 14775 ft 404 kts 122°
2026-05-05 17:27 55.39514 -2.78845 15477 ft 408 kts 121°
2026-05-05 17:27 55.38102 -2.74474 16166 ft 412 kts 121°
2026-05-05 17:27 55.36683 -2.70069 16834 ft 416 kts 121°
2026-05-05 17:27 55.35252 -2.65594 17482 ft 420 kts 121°
2026-05-05 17:28 55.33814 -2.61114 18109 ft 424 kts 121°
2026-05-05 17:28 55.32353 -2.56584 18725 ft 428 kts 121°
2026-05-05 17:28 55.30877 -2.52028 19324 ft 432 kts 121°
2026-05-05 17:28 55.29312 -2.47493 19907 ft 435 kts 126°
2026-05-05 17:29 55.27461 -2.43369 20472 ft 436 kts 134°
2026-05-05 17:29 55.25287 -2.39632 21029 ft 437 kts 141°
2026-05-05 17:29 55.22945 -2.36297 21557 ft 440 kts 145°
2026-05-05 17:29 55.20493 -2.33064 22075 ft 443 kts 146°
2026-05-05 17:30 55.18096 -2.29960 22561 ft 446 kts 146°
2026-05-05 17:30 55.15590 -2.26707 23053 ft 449 kts 146°
2026-05-05 17:30 55.13076 -2.23437 23529 ft 452 kts 146°
2026-05-05 17:30 55.10544 -2.20140 23991 ft 455 kts 146°
2026-05-05 17:31 55.07991 -2.16813 24439 ft 458 kts 146°
2026-05-05 17:31 55.06295 -2.14603 24728 ft 460 kts 146°
2026-05-05 17:31 55.03712 -2.11240 24956 ft 464 kts 146°
2026-05-05 17:31 55.00230 -2.06702 24995 ft 471 kts 145°
2026-05-05 17:32 54.98504 -2.04422 24997 ft 472 kts 145°
2026-05-05 17:32 54.95028 -1.99847 24996 ft 470 kts 145°
2026-05-05 17:32 54.93299 -1.97580 24997 ft 470 kts 145°
2026-05-05 17:32 54.90682 -1.94156 24997 ft 470 kts 146°
2026-05-05 17:33 54.88077 -1.90757 24997 ft 470 kts 146°
2026-05-05 17:33 54.84609 -1.86244 24997 ft 470 kts 146°
2026-05-05 17:33 54.82844 -1.83954 24997 ft 470 kts 146°
2026-05-05 17:33 54.79374 -1.79459 24997 ft 470 kts 146°
2026-05-05 17:34 54.77604 -1.77169 24997 ft 470 kts 146°
2026-05-05 17:34 54.74983 -1.73786 24997 ft 470 kts 146°
2026-05-05 17:34 54.72360 -1.70405 24997 ft 470 kts 146°
2026-05-05 17:34 54.69744 -1.67041 24997 ft 470 kts 146°
2026-05-05 17:35 54.67143 -1.63699 24997 ft 470 kts 146°
2026-05-05 17:35 54.64511 -1.60325 24997 ft 470 kts 146°
2026-05-05 17:35 54.61891 -1.56972 24997 ft 470 kts 146°
2026-05-05 17:35 54.59262 -1.53613 24997 ft 470 kts 146°
2026-05-05 17:36 54.56636 -1.50263 24997 ft 470 kts 146°
2026-05-05 17:36 54.54011 -1.46919 24997 ft 470 kts 146°
2026-05-05 17:36 54.51362 -1.43551 24997 ft 478 kts 146°
2026-05-05 17:36 54.48668 -1.40131 24997 ft 483 kts 146°
2026-05-05 17:37 54.45939 -1.36672 24997 ft 487 kts 146°
2026-05-05 17:37 54.43203 -1.33211 24997 ft 487 kts 146°
2026-05-05 17:37 54.40478 -1.29769 24997 ft 486 kts 146°
2026-05-05 17:37 54.37756 -1.26337 24997 ft 486 kts 146°
2026-05-05 17:38 54.35070 -1.22955 24997 ft 486 kts 146°
2026-05-05 17:38 54.32296 -1.19469 24997 ft 486 kts 146°
2026-05-05 17:38 54.29649 -1.16147 24997 ft 486 kts 146°
2026-05-05 17:38 54.26858 -1.12615 24997 ft 486 kts 146°
2026-05-05 17:39 54.24124 -1.09175 24997 ft 486 kts 146°
2026-05-05 17:39 54.21397 -1.05764 24997 ft 486 kts 146°
2026-05-05 17:39 54.18668 -1.02366 24997 ft 486 kts 146°
2026-05-05 17:39 54.15964 -0.99011 24997 ft 486 kts 146°
2026-05-05 17:40 54.13231 -0.95626 24997 ft 486 kts 146°
2026-05-05 17:40 54.10707 -0.92505 24997 ft 486 kts 146°
2026-05-05 17:40 54.07764 -0.88872 24997 ft 486 kts 146°
2026-05-05 17:40 54.04998 -0.85461 24997 ft 486 kts 146°
2026-05-05 17:41 54.02264 -0.82101 24997 ft 486 kts 147°
2026-05-05 17:41 53.99488 -0.78824 24997 ft 485 kts 148°
2026-05-05 17:41 53.96704 -0.75582 24997 ft 486 kts 148°
2026-05-05 17:41 53.93912 -0.72290 24997 ft 488 kts 148°
2026-05-05 17:42 53.91128 -0.69022 24997 ft 491 kts 148°
2026-05-05 17:42 53.88434 -0.65875 24997 ft 491 kts 148°
2026-05-05 17:42 53.85599 -0.62574 24997 ft 490 kts 148°
2026-05-05 17:42 53.82783 -0.59303 24997 ft 490 kts 148°
2026-05-05 17:43 53.80019 -0.56099 24997 ft 490 kts 148°
2026-05-05 17:43 53.77151 -0.52779 24997 ft 490 kts 148°
2026-05-05 17:43 53.74339 -0.49529 24997 ft 490 kts 148°
2026-05-05 17:43 53.71606 -0.46373 24997 ft 490 kts 148°
2026-05-05 17:44 53.68699 -0.43009 24997 ft 490 kts 148°
2026-05-05 17:44 53.65919 -0.39802 24997 ft 490 kts 148°
2026-05-05 17:44 53.63098 -0.36558 24997 ft 490 kts 148°
2026-05-05 17:44 53.60339 -0.33182 24996 ft 492 kts 143°
2026-05-05 17:45 53.57763 -0.29372 24997 ft 494 kts 138°
2026-05-05 17:45 53.55413 -0.25157 24997 ft 495 kts 132°
2026-05-05 17:45 53.53253 -0.20630 24997 ft 496 kts 129°
2026-05-05 17:45 53.51180 -0.16003 24997 ft 496 kts 128°
2026-05-05 17:46 53.49103 -0.11358 24997 ft 496 kts 129°
2026-05-05 17:46 53.47023 -0.06730 24997 ft 496 kts 129°
2026-05-05 17:46 53.44939 -0.02112 24997 ft 496 kts 129°
2026-05-05 17:46 53.42874 0.02509 24997 ft 496 kts 128°
2026-05-05 17:47 53.40802 0.07176 24997 ft 496 kts 129°
2026-05-05 17:47 53.38769 0.11694 24997 ft 496 kts 129°
2026-05-05 17:47 53.36660 0.16342 24997 ft 496 kts 129°
2026-05-05 17:47 53.34561 0.20941 24997 ft 496 kts 129°
2026-05-05 17:48 53.32462 0.25526 24997 ft 496 kts 129°
2026-05-05 17:48 53.30362 0.30104 24997 ft 496 kts 129°
2026-05-05 17:48 53.28255 0.34687 24997 ft 496 kts 129°
2026-05-05 17:48 53.26154 0.39254 24997 ft 496 kts 129°
2026-05-05 17:49 53.24048 0.43829 24997 ft 496 kts 129°
2026-05-05 17:49 53.21967 0.48330 24997 ft 496 kts 129°
2026-05-05 17:49 53.19855 0.52888 24997 ft 496 kts 129°
2026-05-05 17:49 53.17747 0.57433 24997 ft 496 kts 129°
2026-05-05 17:50 53.15656 0.62012 24997 ft 496 kts 129°
2026-05-05 17:50 53.13559 0.66572 24997 ft 496 kts 129°
2026-05-05 17:50 53.11449 0.71125 24997 ft 496 kts 129°
2026-05-05 17:50 53.09337 0.75658 24997 ft 496 kts 129°
2026-05-05 17:51 53.07229 0.80163 24997 ft 496 kts 130°
2026-05-05 17:51 53.05120 0.84660 24997 ft 496 kts 130°
2026-05-05 17:51 53.02990 0.89192 24997 ft 496 kts 130°
2026-05-05 17:51 53.00867 0.93774 24994 ft 497 kts 127°
2026-05-05 17:52 52.99064 0.98660 24997 ft 498 kts 119°
2026-05-05 17:52 52.97675 1.03934 24997 ft 500 kts 111°
2026-05-05 17:52 52.96694 1.09479 24997 ft 501 kts 104°
2026-05-05 17:52 52.95977 1.15129 24997 ft 501 kts 101°
2026-05-05 17:53 52.95360 1.20684 24997 ft 501 kts 101°
2026-05-05 17:53 52.94712 1.26440 24997 ft 501 kts 101°
2026-05-05 17:53 52.94059 1.32123 24996 ft 501 kts 101°
2026-05-05 17:53 52.93395 1.37809 24997 ft 501 kts 101°
2026-05-05 17:54 52.92725 1.43484 24997 ft 501 kts 102°
2026-05-05 17:54 52.92051 1.49144 24997 ft 501 kts 102°
2026-05-05 17:54 52.91371 1.54808 24997 ft 501 kts 102°
2026-05-05 17:54 52.90713 1.60472 24997 ft 501 kts 101°
2026-05-05 17:55 52.90060 1.66138 24997 ft 501 kts 101°
2026-05-05 17:55 52.89395 1.71803 24997 ft 501 kts 102°
2026-05-05 17:55 52.88723 1.77456 24997 ft 501 kts 102°
2026-05-05 17:55 52.88043 1.83116 24997 ft 501 kts 102°
2026-05-05 17:56 52.87357 1.88778 24997 ft 501 kts 102°
2026-05-05 17:56 52.86677 1.94361 24997 ft 501 kts 102°
2026-05-05 17:56 52.85995 2.00007 24997 ft 501 kts 101°
2026-05-05 17:56 52.85325 2.05671 24997 ft 501 kts 102°
2026-05-05 17:57 52.84634 2.11324 24997 ft 501 kts 102°
2026-05-05 17:57 52.83930 2.16971 24997 ft 501 kts 102°
2026-05-05 17:57 52.83220 2.22607 24997 ft 501 kts 102°
2026-05-05 17:57 52.82505 2.28237 24997 ft 501 kts 102°
2026-05-05 17:58 52.81786 2.33878 24997 ft 501 kts 102°
2026-05-05 17:58 52.81065 2.39508 24997 ft 501 kts 102°
2026-05-05 17:58 52.80345 2.45129 24997 ft 501 kts 102°
2026-05-05 17:58 52.79631 2.50715 24997 ft 501 kts 102°
2026-05-05 17:59 52.78920 2.56345 24997 ft 499 kts 102°
2026-05-05 17:59 52.78264 2.61471 24997 ft 496 kts 103°
2026-05-05 17:59 52.77549 2.66966 24997 ft 496 kts 103°
2026-05-05 17:59 52.76821 2.72537 24997 ft 496 kts 103°
2026-05-05 18:00 52.76096 2.78085 24700 ft 488 kts 103°
2026-05-05 18:00 52.75412 2.83337 24038 ft 481 kts 103°
2026-05-05 18:00 52.74709 2.88700 23477 ft 473 kts 103°
2026-05-05 18:00 52.73996 2.93786 23236 ft 459 kts 106°
2026-05-05 18:01 52.73023 2.98779 22973 ft 445 kts 111°
2026-05-05 18:01 52.71815 3.03449 22388 ft 441 kts 117°
2026-05-05 18:01 52.70432 3.07864 21783 ft 437 kts 121°
2026-05-05 18:01 52.68900 3.12250 21161 ft 435 kts 122°
2026-05-05 18:02 52.67412 3.16402 20567 ft 432 kts 122°
2026-05-05 18:02 52.65891 3.20660 19956 ft 430 kts 122°
2026-05-05 18:02 52.64378 3.24909 19345 ft 427 kts 122°
2026-05-05 18:02 52.62886 3.29104 18742 ft 424 kts 122°
2026-05-05 18:03 52.61399 3.33288 18141 ft 421 kts 122°
2026-05-05 18:03 52.59960 3.37479 17542 ft 419 kts 118°
2026-05-05 18:03 52.58868 3.41912 16947 ft 418 kts 109°
2026-05-05 18:03 52.58122 3.46528 16344 ft 416 kts 103°
2026-05-05 18:04 52.57544 3.51172 15752 ft 414 kts 101°
2026-05-05 18:04 52.57041 3.55813 15164 ft 411 kts 101°
2026-05-05 18:04 52.56551 3.60359 14587 ft 408 kts 101°
2026-05-05 18:04 52.56047 3.65002 13999 ft 405 kts 101°
2026-05-05 18:05 52.55550 3.69549 13425 ft 403 kts 101°
2026-05-05 18:05 52.55054 3.74071 12853 ft 400 kts 101°
2026-05-05 18:05 52.54568 3.78486 12296 ft 397 kts 101°
2026-05-05 18:05 52.54076 3.82940 11733 ft 394 kts 101°
2026-05-05 18:06 52.53587 3.87364 11175 ft 392 kts 101°
2026-05-05 18:06 52.53266 3.90269 10807 ft 390 kts 101°
2026-05-05 18:06 52.52591 3.96089 10100 ft 385 kts 104°
2026-05-05 18:06 52.51855 4.00238 10014 ft 369 kts 110°
2026-05-05 18:07 52.50978 4.04093 9994 ft 353 kts 113°
2026-05-05 18:07 52.50060 4.07731 9990 ft 337 kts 114°
2026-05-05 18:07 52.49156 4.11200 9984 ft 323 kts 114°
2026-05-05 18:07 52.48298 4.14526 9982 ft 310 kts 114°
2026-05-05 18:08 52.47479 4.17737 9941 ft 299 kts 114°
2026-05-05 18:08 52.46689 4.20856 9756 ft 294 kts 114°
2026-05-05 18:08 52.45908 4.23954 9441 ft 294 kts 114°
2026-05-05 18:08 52.45148 4.27028 9157 ft 293 kts 113°
2026-05-05 18:09 52.44401 4.30132 8870 ft 292 kts 113°
2026-05-05 18:09 52.43650 4.33225 8618 ft 291 kts 113°
2026-05-05 18:09 52.42710 4.36116 8460 ft 286 kts 134°
2026-05-05 18:09 52.41099 4.37845 8360 ft 274 kts 166°
2026-05-05 18:10 52.39244 4.38272 8295 ft 267 kts 182°
2026-05-05 18:10 52.37388 4.38328 8268 ft 267 kts 184°
2026-05-05 18:10 52.35523 4.38346 8250 ft 269 kts 184°
2026-05-05 18:10 52.33645 4.38362 8238 ft 270 kts 184°
2026-05-05 18:11 52.31767 4.38292 8063 ft 271 kts 192°
2026-05-05 18:11 52.29992 4.37283 7629 ft 271 kts 210°
2026-05-05 18:11 52.28324 4.35799 7183 ft 274 kts 213°
2026-05-05 18:11 52.26678 4.34268 6739 ft 277 kts 213°
2026-05-05 18:12 52.24985 4.32694 6220 ft 283 kts 213°
2026-05-05 18:12 52.23255 4.31085 5670 ft 290 kts 212°
2026-05-05 18:12 52.21483 4.29442 5118 ft 296 kts 211°
2026-05-05 18:12 52.19508 4.28445 4548 ft 305 kts 184°
2026-05-05 18:13 52.17423 4.29136 4030 ft 307 kts 155°
2026-05-05 18:13 52.15826 4.31310 3492 ft 307 kts 127°
2026-05-05 18:13 52.15044 4.34517 2939 ft 307 kts 98°
2026-05-05 18:13 52.15293 4.37924 2404 ft 306 kts 71°
2026-05-05 18:14 52.16248 4.41008 2188 ft 290 kts 59°
2026-05-05 18:14 52.17253 4.43584 2127 ft 268 kts 57°
2026-05-05 18:14 52.18206 4.45990 2089 ft 236 kts 57°
2026-05-05 18:14 52.19033 4.48110 2038 ft 209 kts 57°
2026-05-05 18:15 52.19775 4.50021 2011 ft 190 kts 58°
2026-05-05 18:15 52.20465 4.51804 2032 ft 183 kts 58°
2026-05-05 18:15 52.21115 4.53485 2023 ft 169 kts 58°
2026-05-05 18:15 52.21727 4.55072 1994 ft 159 kts 58°
2026-05-05 18:16 52.22298 4.56551 2009 ft 153 kts 58°
2026-05-05 18:16 52.22675 4.57528 2091 ft 149 kts 58°
2026-05-05 18:16 52.23228 4.58962 2064 ft 151 kts 58°
2026-05-05 18:16 52.23965 4.60874 1804 ft 150 kts 58°
2026-05-05 18:17 52.24517 4.62307 1600 ft 149 kts 58°
2026-05-05 18:17 52.25074 4.63753 1399 ft 148 kts 58°
2026-05-05 18:17 52.25437 4.64697 1269 ft 148 kts 58°
2026-05-05 18:17 52.25985 4.66120 1073 ft 148 kts 58°
2026-05-05 18:18 52.26531 4.67539 876 ft 147 kts 58°
2026-05-05 18:18 52.27076 4.68954 681 ft 147 kts 58°
2026-05-05 18:18 52.27617 4.70363 489 ft 146 kts 58°
2026-05-05 18:18 52.28159 4.71773 294 ft 145 kts 58°
2026-05-05 18:19 52.28688 4.73148 154 ft 140 kts 58°
2026-05-05 18:19 52.28927 4.73769 65 ft 140 kts 58°
2026-05-05 18:19 52.29196 4.74466 8 ft 136 kts 58°
2026-05-05 18:19 52.29671 4.75708 24 ft 129 kts 58°
2026-05-05 18:20 52.30193 4.77048 570 ft 152 kts 57°
2026-05-05 18:20 52.30797 4.78580 1477 ft 165 kts 57°
2026-05-05 18:20 52.31516 4.80369 1970 ft 217 kts 56°
2026-05-05 18:20 52.32478 4.82683 2395 ft 271 kts 55°
2026-05-05 18:21 52.33430 4.85542 2923 ft 292 kts 72°
2026-05-05 18:21 52.33513 4.88729 3077 ft 276 kts 102°
2026-05-05 18:21 52.32623 4.91370 3072 ft 260 kts 135°
2026-05-05 18:21 52.31088 4.92661 3063 ft 244 kts 170°
2026-05-05 18:22 52.29468 4.92401 3084 ft 228 kts 195°
2026-05-05 18:22 52.28023 4.91610 3084 ft 217 kts 199°
2026-05-05 18:22 52.26598 4.90772 3078 ft 212 kts 200°
2026-05-05 18:22 52.25226 4.89962 3079 ft 208 kts 200°
2026-05-05 18:23 52.24040 4.88716 3020 ft 208 kts 227°
2026-05-05 18:23 52.23235 4.86774 3097 ft 206 kts 238°
2026-05-05 18:23 52.22505 4.84750 3101 ft 208 kts 240°
2026-05-05 18:23 52.21775 4.82698 3098 ft 210 kts 240°
2026-05-05 18:24 52.21039 4.80632 3095 ft 212 kts 240°
2026-05-05 18:24 52.20125 4.78768 3020 ft 212 kts 215°
2026-05-05 18:24 52.18748 4.78083 3070 ft 207 kts 187°
2026-05-05 18:24 52.17306 4.77972 3108 ft 207 kts 181°
2026-05-05 18:25 52.15860 4.77968 3134 ft 208 kts 180°
2026-05-05 18:25 52.14892 4.77972 3338 ft 206 kts 180°
2026-05-05 18:25 52.12954 4.77980 3941 ft 212 kts 180°
2026-05-05 18:25 52.11482 4.77986 4373 ft 219 kts 180°
2026-05-05 18:26 52.09936 4.77993 4502 ft 224 kts 181°
2026-05-05 18:26 52.08360 4.77999 4499 ft 224 kts 181°
2026-05-05 18:26 52.06801 4.78004 4517 ft 225 kts 181°
2026-05-05 18:26 52.05230 4.78017 4532 ft 226 kts 181°
2026-05-05 18:27 52.03667 4.78022 4478 ft 221 kts 181°
2026-05-05 18:27 52.02140 4.77959 4458 ft 219 kts 191°
2026-05-05 18:27 52.00863 4.76765 4398 ft 213 kts 231°
2026-05-05 18:27 52.00399 4.74589 4431 ft 206 kts 272°
2026-05-05 18:28 52.02064 4.71180 4657 ft 204 kts 328°
2026-05-05 18:28 52.03301 4.69997 4640 ft 208 kts 329°
2026-05-05 18:28 52.04562 4.68808 4493 ft 211 kts 329°
2026-05-05 18:29 52.05811 4.67629 4340 ft 203 kts 330°
2026-05-05 18:29 52.07013 4.66495 4161 ft 198 kts 330°
2026-05-05 18:29 52.08202 4.65373 3983 ft 195 kts 330°
2026-05-05 18:29 52.09364 4.64274 3763 ft 192 kts 330°
2026-05-05 18:30 52.10516 4.63186 3534 ft 189 kts 330°
2026-05-05 18:30 52.11648 4.62115 3307 ft 187 kts 330°
2026-05-05 18:30 52.12773 4.61051 3081 ft 187 kts 330°
2026-05-05 18:30 52.13881 4.60002 2875 ft 185 kts 330°
2026-05-05 18:31 52.14979 4.58962 2847 ft 182 kts 330°
2026-05-05 18:31 52.16087 4.57913 2881 ft 183 kts 330°
2026-05-05 18:31 52.17168 4.56888 2906 ft 184 kts 330°
2026-05-05 18:31 52.18273 4.55841 2923 ft 186 kts 330°
2026-05-05 18:32 52.19437 4.54907 2846 ft 190 kts 346°
2026-05-05 18:32 52.20699 4.55170 2665 ft 188 kts 22°
2026-05-05 18:32 52.21768 4.56352 2496 ft 185 kts 41°
2026-05-05 18:32 52.22597 4.57888 2237 ft 176 kts 52°
2026-05-05 18:33 52.23329 4.59430 2023 ft 168 kts 53°
2026-05-05 18:33 52.23987 4.60984 1788 ft 165 kts 56°
2026-05-05 18:33 52.24602 4.62545 1566 ft 162 kts 57°
2026-05-05 18:33 52.25164 4.63993 1366 ft 162 kts 58°
2026-05-05 18:34 52.25796 4.65629 1136 ft 158 kts 58°
2026-05-05 18:34 52.26369 4.67119 926 ft 152 kts 58°
2026-05-05 18:34 52.26924 4.68559 728 ft 148 kts 58°
2026-05-05 18:34 52.27462 4.69958 538 ft 145 kts 58°
2026-05-05 18:35 52.28004 4.71368 346 ft 145 kts 58°
2026-05-05 18:35 52.28533 4.72744 158 ft 145 kts 58°
2026-05-05 18:35 52.29064 4.74120 14 ft 138 kts 58°
2026-05-05 18:35 52.29519 4.75294 -3 ft 96 kts 59°
2026-05-05 18:36 52.29749 4.75912 -3 ft 48 kts 58°
2026-05-05 18:36 52.29918 4.76345 -3 ft 43 kts 57°
2026-05-05 18:36 52.30102 4.76621 -3 ft 35 kts 27°
2026-05-05 18:36 52.30229 4.76719 -3 ft 0 kts 20°
2026-05-05 18:38 52.30232 4.76720 -3 ft 2 kts 20°
2026-05-05 18:38 52.30275 4.76746 -3 ft 11 kts 19°
2026-05-05 18:38 52.30345 4.76698 -3 ft 10 kts 275°
2026-05-05 18:38 52.30333 4.76569 -3 ft 8 kts 276°
2026-05-05 18:39 52.30360 4.76519 -3 ft 10 kts 329°
2026-05-05 18:39 52.30442 4.76438 -3 ft 12 kts 333°
2026-05-05 18:39 52.30493 4.76467 -3 ft 10 kts 57°
2026-05-05 18:39 52.30516 4.76547 -3 ft 10 kts 71°
2026-05-05 18:40 52.30518 4.76557 -3 ft 0 kts 67°